Regional Weather Roundup
Issued by NWS Jackson, KY

Home | Current Version | Previous Version | Graphics & Text | Print | Product List | Glossary On
Versions: 1 2 3 4 5 6 7 8 9 10 11 12 13 14 15 16 17 18 19 20 21 22 23 24 25 26 27 28 29 30 31 32 33 34 35 36 37 38 39 40 41 42 43 44 45 46 47 48 49 50
000
ASUS43 KJKL 210510
RWRJKL

EAST KENTUCKY HOURLY WEATHER ROUNDUP
NATIONAL WEATHER SERVICE JACKSON KY
1200 AM EST TUE FEB 21 2017

NOTE: "FAIR" INDICATES FEW OR NO CLOUDS BELOW 12,000 FEET WITH
NO SIGNIFICANT WEATHER AND/OR OBSTRUCTIONS TO VISIBILITY.

* THESE REPORTS ARE NOT UNDER NWS QUALITY CONTROL AND MAY NOT
  REPORT WEATHER SUCH AS PRECIPITATION AND FOG.

KYZ079-080-083-085-087-088-110-112-115-119-120-210600
...EASTERN KENTUCKY...

CITY           SKY/WX    TMP DP  RH WIND       PRES   REMARKS
JACKSON        CLOUDY    58  37  45 E3        30.09F
LONDON         CLOUDY    52  40  63 CALM      30.09F
SOMERSET*      CLOUDY    54  41  62 CALM      30.09F
MONTICELLO*    PTCLDY    50  43  77 N8        30.10S
WILLIAMSBURG*  CLOUDY    55  41  58 S6        30.09F
MIDDLESBORO*   PTCLDY    46  43  91 CALM      30.12F
HARLAN APT*    PTCLDY    50  37  62 E3        30.12F
PIKE CO APT*     N/A     56  34  44 SE3       30.10F
BIG SANDY APT* PTCLDY    54  38  56 CALM      30.09F
MOREHEAD APT*  CLOUDY    55  37  50 E5        30.09F
ASHLAND*       CLOUDY    43  39  87 CALM      30.07F
$$

KYZ035-036-041-042-044-050-067-078-099-210600
...CENTRAL KENTUCKY...

CITY           SKY/WX    TMP DP  RH WIND       PRES   REMARKS
MT STERLING*   CLOUDY    50  41  71 SE5       30.09F
FLEMING/MASON* CLOUDY    52  39  61 SE7       30.08F
DANVILLE*      CLOUDY    50  43  76 CALM      30.07F
LEXINGTON      CLOUDY    58  41  53 SE8       30.06F
FRANKFORT      CLOUDY    56  43  61 SE6       30.03F
LOUISVILLE     CLOUDY    60  41  49 SE3       30.02F
LEBANON*         N/A     59  41  51 S8        30.05F
GLASGOW*       MOCLDY    56  45  65 CALM      30.04S
BOWLING GREEN  MOCLDY    62  43  49 S8        30.02F
$$

KYZ091>093-OHZ055-061-077-WVZ005-015-034-035-042-210600
...SOUTHERN OHIO/WEST VIRGINIA...

CITY           SKY/WX    TMP DP  RH WIND       PRES   REMARKS
COVINGTON      CLOUDY    55  40  56 SE10      30.04F
COLUMBUS       CLOUDY    53  39  59 E9        30.08F
DAYTON         CLOUDY    49  42  77 SE9       30.07F
WILMINGTON     PTCLDY    49  40  71 SE7       30.07F
HUNTINGTON     CLOUDY    48  38  68 CALM      30.08F
CHARLESTON     MOCLDY    46  40  79 CALM      30.10F
PINEVILLE*     CLOUDY    45  34  66 MISG      30.19F
BECKLEY        MOCLDY    56  31  38 SE14G20   30.17F
BLUEFIELD      PTCLDY    55  31  39 SE8       30.19F
LOGAN CO APT*    N/A     57  36  44 CALM      30.11F
$$

VAZ002-007-008-TNZ017-027-036-066-071-210600
...SOUTHWEST VIRGINIA/EAST TENNESSEE...

CITY           SKY/WX    TMP DP  RH WIND       PRES   REMARKS
WISE*          PTCLDY    55  27  33 CALM      30.16F
JONESVILLE*      N/A     45  39  81 CALM      30.14F
ABINGDON*      CLOUDY    48  35  61 E9        30.16F
BRISTOL        MOCLDY    45  37  73 CALM      30.14F
MORRISTOWN*    CLEAR     52  45  76 CALM      30.11F
SEVIERVILLE*   CLEAR     46  41  81 CALM      30.11F
KNOXVILLE      CLOUDY    56  44  64 CALM      30.10F
LAFOLLETTE*    CLEAR     48  45  87 CALM      30.14F
OAK RIDGE      MOCLDY    51  45  79 CALM      30.12F
CROSSVILLE     CLOUDY    51  44  77 CALM      30.11F
NASHVILLE      MOCLDY    61  44  53 SE7       30.03F
$$

...KEY TO REMARKS...
VSB - VISIBILITY IN MILES
WCI - WIND CHILL INDEX
HX  - HEAT INDEX

$$



USA.gov is the U.S. government's official web portal to all federal, state and local government web resources and services.